Date String (YYYY-MM-DD hh:mm:ss) UTC,Instrument flags,Ambient pressure (hPa),Sample flow (lpm),Bypass flow (lpm),Sample temperature (°C),Ambient temperature (°C),ASC tube jacket temperature (°C),LED temperature (°C),Box temperature (°C),Sample RH (%),Span deviation,Mass concentration (μg/m³),Mass concentration (μg/m³),Mass concentration (μg/m³)
DateTimeUTC,F1_M11,P_M11,Q1_M11,Q2_M11,T1_M11,T2_M11,T3_M11,T4_M11,T5_M11,U1_M11,ZSPAN_M11,X0_M11,X2_M11,X1_M11
2021-08-23 21:00:00,,0825.5,4.99,0.00,29.1,28.3,00.0,38.0,31.1,22.0,0000.0,0004.87,0003.42,0003.19
2021-08-23 21:01:00,,0825.5,5.01,0.00,29.2,27.9,00.0,38.0,31.0,22.7,0000.0,0004.82,0003.40,0003.18
2021-08-23 21:02:00,,0825.5,5.00,0.00,29.1,26.2,00.0,38.0,30.5,23.6,0000.0,0005.06,0003.42,0003.18
2021-08-23 21:03:00,,0825.4,5.00,0.00,28.9,25.8,00.0,38.0,30.3,23.1,0000.0,0005.02,0003.39,0003.17
2021-08-23 21:04:00,,0825.4,5.00,0.00,28.9,26.3,00.0,38.0,30.5,22.4,0000.0,0006.56,0003.39,0003.16
2021-08-23 21:05:00,,0825.3,4.99,0.00,28.9,26.7,00.0,38.0,30.6,23.3,0000.0,0007.53,0003.39,0003.16
2021-08-23 21:06:00,,0825.4,5.01,0.00,28.9,27.1,00.0,38.0,30.7,22.9,0000.0,0007.92,0003.39,0003.16
2021-08-23 21:07:00,,0825.4,4.99,0.00,29.0,27.5,00.0,38.0,30.8,22.9,0000.0,0008.03,0003.39,0003.15
2021-08-23 21:08:00,,0825.3,5.01,0.00,29.0,27.9,00.0,38.0,31.0,22.6,0000.0,0008.04,0003.38,0003.15
2021-08-23 21:09:00,,0825.3,5.00,0.00,29.1,27.6,00.0,38.0,30.9,22.0,0000.0,0008.01,0003.37,0003.14
2021-08-23 21:10:00,,0825.3,4.99,0.00,29.0,26.0,00.0,38.0,30.5,22.4,0000.0,0008.11,0003.39,0003.15
2021-08-23 21:11:00,,0825.3,5.01,0.00,28.9,25.7,00.0,38.0,30.3,21.7,0000.0,0008.10,0003.38,0003.16
2021-08-23 21:12:00,,0825.2,4.99,0.00,28.8,26.1,00.0,38.0,30.4,21.8,0000.0,0008.39,0003.40,0003.16
2021-08-23 21:13:00,,0825.2,5.01,0.00,28.8,26.6,00.0,37.9,30.5,22.9,0000.0,0008.44,0003.38,0003.15
2021-08-23 21:14:00,,0825.3,4.99,0.00,28.9,27.0,00.0,37.9,30.6,22.7,0000.0,0008.56,0003.36,0003.14
2021-08-23 21:15:00,,0825.3,5.02,0.00,28.9,27.5,00.0,37.9,30.8,21.8,0000.0,0008.03,0003.35,0003.14
2021-08-23 21:16:00,,0825.3,5.00,0.00,29.0,27.8,00.0,38.0,30.9,22.3,0000.0,0007.17,0003.35,0003.14
2021-08-23 21:17:00,,0825.2,5.00,0.00,29.1,28.0,00.0,38.0,31.0,21.8,0000.0,0006.49,0003.35,0003.13
2021-08-23 21:18:00,,0825.2,5.01,0.00,29.0,26.9,00.0,38.0,30.6,21.9,0000.0,0006.27,0003.35,0003.13
2021-08-23 21:19:00,,0825.2,5.00,0.00,28.9,25.6,00.0,38.0,30.2,21.8,0000.0,0006.20,0003.34,0003.12
2021-08-23 21:20:00,,0825.2,5.00,0.00,28.8,25.8,00.0,37.9,30.3,22.4,0000.0,0006.17,0003.34,0003.13
2021-08-23 21:21:00,,0825.2,4.99,0.00,28.8,26.3,00.0,37.9,30.4,23.1,0000.0,0005.98,0003.31,0003.10
2021-08-23 21:22:00,,0825.2,5.01,0.00,28.8,26.7,00.0,37.9,30.5,23.3,0000.0,0005.76,0003.29,0003.09
2021-08-23 21:23:00,,0825.2,4.99,0.00,28.8,27.1,00.0,37.9,30.6,22.4,0000.0,0005.32,0003.31,0003.08
2021-08-23 21:24:00,,0825.2,4.99,0.00,28.9,27.5,00.0,37.9,30.8,21.4,0000.0,0005.07,0003.31,0003.09
2021-08-23 21:25:00,,0825.2,4.99,0.00,29.0,27.9,00.0,37.9,30.9,21.5,0000.0,0004.80,0003.32,0003.10
2021-08-23 21:26:00,,0825.1,5.00,0.00,29.0,28.1,00.0,38.0,31.0,22.1,0000.0,0004.75,0003.34,0003.10
2021-08-23 21:27:00,,0825.1,5.00,0.00,29.0,27.0,00.0,38.0,30.7,23.1,0000.0,0005.33,0003.36,0003.08
2021-08-23 21:28:00,,0825.0,5.01,0.00,28.9,25.6,00.0,37.9,30.2,22.3,0000.0,0005.30,0003.36,0003.09
2021-08-23 21:29:00,,0825.0,5.00,0.00,28.8,25.8,00.0,37.9,30.2,22.8,0000.0,0005.21,0003.35,0003.09
2021-08-23 21:30:00,,0825.0,4.99,0.00,28.8,26.2,00.0,37.9,30.4,22.3,0000.0,0005.19,0003.33,0003.08
2021-08-23 21:31:00,,0825.0,5.00,0.00,28.8,26.7,00.0,37.9,30.5,21.7,0000.0,0005.23,0003.33,0003.07
2021-08-23 21:32:00,,0825.0,5.02,0.00,28.8,27.1,00.0,37.9,30.7,21.8,0000.0,0005.28,0003.34,0003.07
2021-08-23 21:33:00,,0824.9,5.00,0.00,28.9,27.5,00.0,37.9,30.8,21.1,0000.0,0005.24,0003.33,0003.06
2021-08-23 21:34:00,,0824.9,5.00,0.00,29.0,27.8,00.0,37.9,30.9,20.9,0000.0,0005.01,0003.27,0003.04
2021-08-23 21:35:00,,0824.9,4.99,0.00,29.0,26.9,00.0,37.9,30.6,21.4,0000.0,0004.96,0003.27,0003.02
2021-08-23 21:36:00,,0824.9,5.01,0.00,28.8,25.6,00.0,37.9,30.2,21.4,0000.0,0004.76,0003.25,0003.00
2021-08-23 21:37:00,,0824.9,5.00,0.00,28.7,25.8,00.0,37.9,30.2,21.2,0000.0,0004.57,0003.23,0003.01
2021-08-23 21:38:00,,0824.9,5.00,0.00,28.7,26.2,00.0,37.9,30.3,22.2,0000.0,0003.90,0003.22,0003.02
2021-08-23 21:39:00,,0824.9,4.99,0.00,28.7,26.7,00.0,37.8,30.5,22.0,0000.0,0003.90,0003.23,0003.02
2021-08-23 21:40:00,,0824.9,5.00,0.00,28.8,27.1,00.0,37.8,30.6,21.6,0000.0,0004.05,0003.25,0003.04
2021-08-23 21:41:00,,0824.9,5.00,0.00,28.8,27.5,00.0,37.8,30.7,21.5,0000.0,0004.06,0003.26,0003.05
2021-08-23 21:42:00,,0824.9,5.01,0.00,28.9,27.8,00.0,37.9,30.8,21.5,0000.0,0004.06,0003.28,0003.10
2021-08-23 21:43:00,,0824.9,4.99,0.00,29.0,28.1,00.0,37.9,31.0,20.8,0000.0,0004.24,0003.35,0003.18
2021-08-23 21:44:00,,0824.9,5.00,0.00,29.1,28.0,00.0,37.9,30.9,21.7,0000.0,0004.46,0003.44,0003.25
2021-08-23 21:45:00,,0824.9,5.01,0.00,29.0,26.4,00.0,37.9,30.5,21.0,0000.0,0005.02,0003.53,0003.32
2021-08-23 21:46:00,,0824.9,5.00,0.00,28.8,25.7,00.0,37.9,30.3,21.4,0000.0,0005.21,0003.59,0003.38
2021-08-23 21:47:00,,0824.9,5.00,0.00,28.8,26.1,00.0,37.9,30.4,21.8,0000.0,0005.33,0003.65,0003.44
2021-08-23 21:48:00,,0824.9,5.02,0.00,28.8,26.5,00.0,37.9,30.5,22.0,0000.0,0005.45,0003.70,0003.48
2021-08-23 21:49:00,,0824.9,5.00,0.00,28.8,27.0,00.0,37.9,30.6,22.9,0000.0,0005.83,0003.76,0003.54
2021-08-23 21:50:00,,0824.9,4.99,0.00,28.9,27.4,00.0,37.9,30.8,23.0,0000.0,0006.27,0003.82,0003.59
2021-08-23 21:51:00,,0824.9,5.01,0.00,29.0,27.8,00.0,37.9,30.9,24.1,0000.0,0006.28,0003.85,0003.62
2021-08-23 21:52:00,,0824.9,5.00,0.00,29.0,28.1,00.0,37.9,31.0,24.1,0000.0,0006.46,0003.91,0003.67
2021-08-23 21:53:00,,0824.8,5.00,0.00,29.1,27.3,00.0,37.9,30.8,23.3,0000.0,0006.85,0003.97,0003.71
2021-08-23 21:54:00,,0824.8,5.01,0.00,28.9,25.8,00.0,37.9,30.3,23.6,0000.0,0007.84,0003.95,0003.70
2021-08-23 21:55:00,,0824.6,4.99,0.00,28.8,25.9,00.0,37.9,30.3,23.6,0000.0,0007.93,0003.93,0003.69
2021-08-23 21:56:00,,0824.7,4.99,0.00,28.8,26.3,00.0,37.9,30.4,23.8,0000.0,0007.74,0003.91,0003.68
2021-08-23 21:57:00,,0824.6,4.99,0.00,28.8,26.7,00.0,37.9,30.5,23.4,0000.0,0007.65,0003.89,0003.67
2021-08-23 21:58:00,,0824.6,5.00,0.00,28.8,27.2,00.0,37.9,30.6,23.6,0000.0,0007.69,0003.89,0003.66
2021-08-23 21:59:00,,0824.7,5.00,0.00,28.9,27.5,00.0,37.9,30.8,23.4,0000.0,0007.76,0003.90,0003.67
